Temp
-11 -11 -11 -11 -11 -11 -11 -10 -10 -10 -10 -10 -10 -10 -10 -10 -10 -11 -11 -11 -11 -10 -10 -10 -10 -10 -10 -10 -10 -10 -10 -10 -10 -10 -10 -10 -10 -10 -10 -10 -10 -10 -10 -10 -10 -9 -9 -9 -9 -10 -10 -10
-11 -11 -11 -11 -11 -11 -11 -10 -10 -10 -10 -10 -10 -10 -10 -11 -11 -11 -11 -11 -11 -11 -10 -10 -10 -10 -10 -10 -10 -10 -10 -10 -10 -10 -10 -10 -10 -10 -10 -10 -10 -10 -10 -10 -10 -10 -10 -10 -10 -10 -10 -10
-11 -11 -11 -11 -11 -11 -11 -11 -10 -10 -10 -10 -10 -10 -10 -11 -11 -11 -11 -11 -11 -11 -10 -10 -10 -10 -10 -10 -10 -10 -10 -10 -10 -10 -10 -10 -10 -10 -10 -10 -10 -10 -10 -10 -10 -10 -10 -10 -10 -10 -10 -11
-12 -11 -11 -11 -11 -11 -11 -11 -11 -10 -10 -10 -10 -10 -10 -10 -11 -11 -11 -11 -11 -11 -10 -10 -10 -10 -10 -10 -10 -10 -10 -10 -10 -10 -10 -10 -10 -10 -10 -10 -11 -11 -11 -11 -11 -11 -11 -11 -11 -11 -11 -11
-12 -12 -11 -11 -11 -11 -11 -11 -11 -11 -11 -10 -10 -10 -10 -11 -11 -11 -11 -11 -11 -10 -10 -10 -10 -10 -10 -10 -10 -10 -10 -10 -10 -10 -10 -10 -10 -10 -11 -11 -11 -11 -11 -11 -11 -11 -11 -11 -11 -11 -11 -11
-12 -12 -12 -12 -11 -11 -11 -12 -11 -11 -11 -11 -10 -10 -11 -11 -11 -11 -11 -11 -11 -10 -10 -10 -10 -10 -11 -11 -11 -11 -11 -11 -11 -11 -11 -11 -10 -11 -11 -11 -11 -11 -11 -12 -12 -12 -12 -12 -12 -12 -12 -12
-12 -12 -12 -12 -12 -12 -12 -12 -12 -12 -12 -11 -11 -11 -11 -11 -11 -11 -11 -11 -11 -11 -11 -10 -10 -11 -11 -11 -11 -11 -11 -11 -11 -11 -11 -11 -11 -11 -11 -12 -12 -12 -12 -12 -12 -12 -12 -12 -12 -12 -12 -12
-12 -12 -12 -12 -12 -12 -12 -12 -12 -12 -12 -12 -11 -11 -11 -11 -11 -11 -11 -11 -11 -11 -11 -11 -11 -11 -11 -11 -11 -11 -11 -12 -12 -11 -11 -11 -11 -11 -12 -12 -12 -12 -12 -12 -12 -12 -12 -12 -12 -12 -12 -12
-12 -12 -12 -12 -12 -12 -12 -12 -12 -12 -12 -12 -12 -11 -11 -11 -11 -11 -11 -11 -11 -11 -11 -11 -11 -11 -11 -11 -11 -11 -12 -12 -12 -12 -12 -12 -12 -11 -11 -12 -12 -12 -12 -12 -12 -12 -12 -12 -12 -12 -12 -12
-12 -12 -12 -12 -13 -13 -12 -12 -12 -12 -12 -12 -12 -12 -12 -11 -11 -11 -11 -11 -11 -11 -11 -11 -11 -11 -11 -11 -11 -11 -12 -12 -12 -12 -12 -12 -12 -11 -11 -12 -12 -12 -12 -12 -12 -12 -12 -12 -12 -12 -12 -12
-12 -12 -12 -12 -12 -13 -13 -13 -13 -13 -13 -13 -13 -12 -12 -12 -12 -12 -12 -12 -12 -12 -12 -12 -12 -11 -11 -11 -11 -11 -11 -12 -12 -12 -12 -12 -12 -11 -12 -12 -12 -12 -12 -12 -12 -12 -12 -12 -12 -12 -12 -12
-12 -12 -13 -12 -12 -13 -13 -13 -13 -13 -13 -13 -13 -13 -13 -12 -12 -12 -12 -12 -12 -12 -12 -12 -12 -12 -12 -11 -11 -11 -11 -11 -12 -12 -12 -12 -12 -12 -12 -12 -12 -12 -12 -12 -12 -12 -12 -12 -12 -12 -12 -13
-13 -13 -13 -13 -13 -13 -13 -13 -13 -13 -13 -13 -13 -13 -13 -13 -13 -13 -13 -13 -12 -12 -12 -12 -12 -12 -12 -12 -12 -12 -12 -12 -12 -12 -12 -12 -12 -12 -12 -12 -12 -12 -12 -12 -12 -12 -13 -13 -13 -13 -13 -13
-13 -13 -13 -13 -13 -13 -13 -13 -13 -13 -13 -13 -13 -13 -13 -13 -13 -13 -13 -13 -13 -13 -13 -13 -13 -12 -12 -12 -12 -12 -12 -12 -12 -12 -12 -12 -12 -13 -13 -13 -13 -12 -13 -13 -13 -13 -13 -13 -13 -13 -13 -13
-13 -13 -13 -13 -13 -13 -13 -13 -13 -13 -13 -13 -13 -13 -13 -13 -13 -13 -13 -13 -13 -13 -13 -13 -13 -13 -13 -13 -13 -13 -13 -13 -13 -12 -12 -12 -13 -13 -13 -13 -13 -13 -13 -13 -13 -13 -13 -13 -13 -13 -13 -14
-13 -13 -13 -13 -13 -13 -13 -13 -13 -13 -13 -13 -13 -13 -13 -13 -14 -14 -14 -14 -14 -14 -13 -13 -13 -13 -13 -13 -13 -13 -13 -13 -13 -13 -13 -13 -13 -13 -13 -13 -13 -13 -13 -13 -13 -13 -14 -14 -14 -14 -14 -14
-13 -13 -13 -13 -13 -13 -13 -13 -13 -13 -13 -13 -13 -13 -13 -14 -14 -14 -14 -14 -14 -14 -14 -14 -13 -13 -13 -13 -13 -13 -13 -13 -13 -13 -13 -13 -13 -13 -13 -13 -13 -13 -13 -13 -13 -14 -14 -14 -14 -14 -14 -14
-13 -13 -13 -13 -13 -13 -13 -13 -13 -13 -13 -13 -13 -13 -14 -14 -14 -14 -14 -14 -15 -15 -14 -14 -14 -14 -14 -14 -14 -14 -13 -13 -13 -13 -13 -13 -13 -13 -13 -13 -14 -14 -14 -14 -14 -14 -14 -15 -15 -15 -15 -15
-13 -13 -13 -13 -13 -13 -13 -13 -13 -13 -13 -13 -13 -13 -14 -14 -14 -14 -14 -14 -15 -15 -15 -14 -14 -14 -14 -14 -14 -14 -14 -14 -14 -14 -14 -14 -14 -14 -14 -14 -14 -14 -14 -14 -14 -15 -15 -15 -15 -15 -15 -15
-14 -14 -13 -14 -13 -13 -13 -13 -13 -13 -13 -13 -13 -13 -14 -14 -14 -14 -14 -15 -15 -15 -15 -15 -15 -14 -14 -14 -14 -14 -14 -14 -14 -14 -14 -14 -15 -15 -15 -15 -15 -15 -15 -14 -15 -15 -15 -15 -15 -15 -15 -15
-14 -14 -14 -14 -13 -13 -13 -13 -13 -13 -13 -13 -14 -14 -14 -14 -14 -14 -14 -15 -15 -15 -15 -15 -15 -15 -14 -14 -14 -14 -14 -14 -15 -15 -14 -15 -15 -15 -15 -15 -15 -15 -15 -15 -15 -15 -16 -16 -16 -16 -16 -16
-14 -14 -14 -14 -14 -13 -13 -13 -13 -13 -13 -14 -14 -14 -14 -14 -14 -14 -14 -15 -15 -15 -15 -15 -15 -15 -14 -14 -14 -14 -15 -15 -15 -15 -15 -15 -15 -15 -16 -16 -16 -16 -15 -15 -15 -16 -16 -16 -16 -16 -16 -16
-14 -14 -14 -14 -14 -14 -14 -14 -13 -13 -13 -14 -14 -14 -14 -14 -14 -15 -15 -15 -15 -15 -15 -15 -15 -14 -15 -15 -15 -15 -15 -15 -15 -15 -15 -15 -15 -15 -16 -16 -16 -16 -16 -16 -16 -16 -16 -16 -16 -16 -16 -16
-15 -14 -14 -14 -14 -14 -14 -14 -14 -14 -14 -14 -14 -14 -14 -14 -15 -15 -15 -15 -15 -14 -14 -15 -14 -14 -15 -15 -15 -15 -15 -15 -15 -15 -15 -15 -15 -15 -16 -16 -16 -16 -16 -16 -16 -16 -16 -16 -17 -17 -17 -16
-15 -15 -14 -14 -14 -14 -14 -14 -14 -14 -14 -15 -14 -14 -14 -14 -15 -15 -15 -15 -15 -14 -14 -15 -14 -15 -15 -15 -15 -15 -15 -15 -15 -15 -15 -15 -15 -16 -16 -16 -16 -16 -16 -16 -16 -17 -17 -17 -17 -17 -17 -17
-15 -15 -15 -15 -14 -14 -14 -14 -14 -14 -14 -15 -15 -14 -14 -15 -15 -15 -15 -15 -15 -14 -15 -15 -15 -15 -15 -15 -15 -15 -15 -15 -16 -16 -16 -16 -16 -16 -16 -16 -16 -16 -16 -16 -17 -17 -17 -17 -17 -17 -17 -17
-15 -15 -15 -15 -15 -15 -15 -14 -14 -14 -15 -15 -15 -14 -14 -15 -15 -15 -15 -15 -15 -15 -15 -15 -15 -15 -15 -15 -15 -15 -15 -16 -16 -16 -16 -16 -16 -16 -16 -16 -16 -16 -16 -17 -17 -17 -17 -17 -17 -17 -17 -18
-15 -16 -16 -16 -16 -15 -15 -15 -15 -15 -15 -15 -15 -14 -14 -15 -15 -15 -15 -15 -15 -15 -15 -15 -15 -15 -15 -16 -16 -15 -16 -16 -16 -16 -16 -17 -17 -17 -17 -16 -16 -17 -16 -17 -17 -18 -18 -18 -18 -18 -18 -18
-16 -16 -16 -16 -16 -16 -16 -15 -15 -15 -16 -15 -15 -15 -15 -15 -15 -16 -16 -16 -16 -16 -15 -15 -16 -16 -16 -16 -16 -16 -16 -16 -16 -17 -17 -17 -17 -17 -17 -17 -17 -17 -17 -17 -18 -18 -18 -18 -18 -18 -18 -18
-17 -16 -16 -16 -17 -17 -16 -16 -16 -16 -16 -16 -16 -16 -16 -15 -16 -16 -16 -16 -16 -16 -16 -16 -16 -16 -16 -16 -16 -17 -17 -17 -17 -17 -17 -17 -17 -17 -17 -17 -17 -17 -17 -17 -18 -18 -18 -18 -18 -18 -18 -18
-17 -17 -17 -17 -17 -17 -17 -17 -16 -16 -16 -16 -16 -16 -16 -16 -16 -16 -16 -16 -16 -16 -17 -17 -16 -17 -17 -17 -17 -17 -17 -17 -17 -17 -17 -18 -18 -17 -17 -17 -17 -17 -18 -18 -18 -18 -18 -18 -18 -18 -18 -18
Height
5835 5835 5835 5836 5837 5837 5837 5838 5839 5840 5841 5842 5843 5844 5845 5846 5847 5848 5848 5848 5848 5848 5849 5850 5851 5850 5850 5850 5851 5851 5851 5851 5851 5851 5851 5851 5851 5851 5851 5851 5851 5851 5851 5851 5851 5851 5851 5850 5850 5850 5849 5849
5831 5832 5832 5833 5833 5834 5834 5835 5835 5836 5837 5838 5839 5841 5842 5843 5844 5844 5844 5844 5844 5844 5845 5846 5847 5847 5847 5847 5847 5847 5847 5847 5847 5848 5847 5847 5847 5847 5848 5848 5847 5847 5847 5847 5847 5847 5847 5846 5846 5846 5846 5845
5827 5828 5829 5829 5830 5830 5831 5831 5832 5833 5833 5834 5835 5837 5838 5840 5840 5840 5840 5840 5840 5840 5841 5842 5843 5843 5843 5843 5843 5843 5843 5843 5843 5844 5844 5844 5844 5844 5844 5844 5844 5844 5843 5843 5843 5843 5843 5842 5842 5842 5842 5841
5823 5824 5825 5825 5826 5827 5827 5828 5828 5829 5830 5831 5831 5833 5834 5836 5836 5836 5836 5836 5836 5836 5837 5838 5839 5839 5839 5838 5839 5839 5839 5839 5839 5839 5840 5840 5840 5841 5840 5840 5840 5840 5840 5839 5839 5839 5839 5839 5838 5838 5838 5837
5819 5820 5821 5822 5823 5824 5824 5824 5825 5826 5826 5826 5827 5829 5830 5831 5832 5832 5833 5833 5832 5832 5833 5834 5835 5835 5835 5835 5834 5834 5834 5834 5835 5835 5835 5835 5836 5836 5837 5837 5836 5836 5836 5836 5836 5835 5835 5835 5834 5834 5833 5833
5816 5816 5818 5819 5819 5820 5821 5821 5822 5822 5822 5822 5823 5824 5826 5827 5828 5828 5829 5829 5829 5829 5829 5830 5831 5831 5831 5831 5830 5830 5830 5830 5830 5830 5830 5830 5831 5832 5832 5832 5832 5832 5832 5832 5832 5832 5831 5831 5830 5830 5829 5828
5812 5813 5814 5815 5816 5817 5817 5818 5819 5819 5818 5818 5819 5820 5821 5822 5823 5824 5824 5825 5825 5825 5825 5825 5826 5827 5827 5826 5826 5826 5826 5825 5825 5825 5825 5826 5826 5827 5828 5828 5828 5828 5828 5828 5828 5827 5827 5827 5826 5825 5825 5824
5808 5810 5811 5812 5812 5812 5813 5815 5816 5815 5815 5815 5815 5816 5817 5818 5819 5819 5820 5820 5820 5820 5820 5821 5821 5822 5822 5821 5821 5821 5821 5821 5821 5821 5821 5821 5822 5823 5824 5825 5825 5824 5824 5824 5824 5823 5823 5822 5822 5821 5820 5820
5805 5806 5807 5808 5809 5809 5810 5812 5812 5812 5812 5812 5812 5812 5812 5813 5814 5814 5815 5815 5816 5816 5816 5816 5817 5817 5817 5817 5817 5817 5817 5816 5816 5816 5817 5817 5817 5818 5819 5820 5820 5820 5820 5820 5819 5819 5819 5818 5817 5817 5816 5816
5802 5802 5803 5805 5806 5806 5806 5806 5807 5807 5807 5807 5807 5807 5807 5808 5809 5810 5810 5810 5811 5811 5812 5812 5812 5812 5812 5812 5812 5812 5812 5812 5812 5812 5812 5813 5813 5814 5815 5815 5815 5815 5815 5815 5815 5815 5815 5814 5814 5813 5812 5812
5797 5797 5797 5798 5800 5801 5801 5801 5801 5802 5803 5803 5803 5803 5803 5803 5804 5805 5805 5805 5806 5807 5807 5807 5807 5808 5808 5808 5808 5808 5808 5808 5808 5808 5808 5808 5809 5810 5811 5810 5810 5810 5810 5811 5811 5811 5810 5810 5810 5809 5808 5808
5792 5791 5791 5792 5793 5795 5796 5796 5797 5797 5797 5797 5798 5799 5798 5798 5799 5800 5801 5801 5801 5802 5802 5802 5803 5803 5803 5803 5803 5803 5803 5803 5804 5804 5804 5804 5805 5806 5806 5806 5806 5806 5806 5806 5806 5806 5806 5806 5805 5804 5804 5803
5788 5786 5786 5788 5788 5790 5791 5792 5793 5792 5792 5792 5793 5794 5794 5794 5794 5795 5796 5796 5796 5797 5797 5798 5798 5799 5798 5799 5798 5798 5799 5799 5799 5799 5799 5800 5801 5801 5801 5801 5801 5801 5801 5801 5801 5802 5801 5801 5801 5800 5799 5798
5782 5781 5782 5783 5784 5785 5786 5788 5788 5788 5788 5787 5787 5788 5789 5789 5789 5790 5791 5791 5791 5792 5792 5793 5793 5793 5793 5793 5793 5794 5794 5794 5794 5795 5795 5795 5796 5796 5796 5796 5796 5796 5796 5797 5797 5797 5797 5796 5796 5795 5794 5793
5776 5777 5778 5779 5779 5780 5781 5783 5783 5783 5783 5782 5781 5782 5783 5784 5784 5785 5785 5785 5786 5787 5787 5788 5788 5788 5788 5788 5789 5789 5789 5789 5790 5790 5790 5791 5790 5790 5791 5791 5791 5791 5792 5792 5792 5792 5792 5792 5791 5791 5790 5789
5771 5772 5773 5774 5775 5776 5777 5778 5778 5778 5778 5777 5776 5776 5777 5778 5779 5779 5780 5780 5780 5781 5782 5782 5783 5783 5783 5784 5784 5784 5784 5785 5785 5785 5785 5785 5785 5785 5785 5785 5786 5786 5786 5787 5787 5787 5787 5786 5786 5786 5784 5784
5766 5767 5769 5770 5772 5773 5773 5773 5773 5773 5773 5773 5771 5770 5771 5772 5773 5774 5775 5775 5775 5776 5776 5777 5777 5778 5778 5779 5779 5779 5779 5780 5780 5780 5780 5780 5780 5780 5780 5780 5780 5780 5781 5781 5781 5781 5781 5781 5781 5780 5779 5778
5761 5762 5763 5765 5767 5768 5768 5767 5767 5768 5768 5768 5766 5765 5766 5766 5767 5769 5769 5769 5769 5770 5771 5771 5772 5772 5773 5773 5774 5774 5774 5774 5774 5774 5774 5774 5774 5774 5774 5774 5774 5774 5775 5775 5775 5775 5775 5775 5775 5774 5773 5773
5756 5757 5757 5759 5761 5762 5763 5762 5762 5763 5763 5763 5761 5760 5761 5761 5762 5763 5764 5764 5764 5765 5765 5766 5767 5767 5768 5768 5768 5768 5768 5768 5768 5769 5768 5768 5768 5768 5768 5768 5768 5768 5769 5769 5769 5769 5769 5768 5768 5768 5767 5766
5751 5752 5753 5754 5755 5756 5758 5757 5757 5757 5758 5758 5757 5756 5756 5757 5758 5759 5759 5760 5759 5760 5760 5760 5761 5761 5762 5762 5762 5762 5762 5762 5762 5762 5762 5762 5762 5762 5762 5762 5762 5762 5763 5763 5763 5763 5763 5762 5762 5761 5761 5760
5746 5747 5748 5749 5750 5751 5751 5751 5751 5751 5752 5753 5753 5752 5752 5752 5753 5753 5754 5755 5755 5755 5755 5755 5755 5755 5756 5756 5756 5756 5756 5756 5756 5756 5756 5755 5755 5755 5756 5756 5756 5756 5757 5757 5757 5757 5757 5756 5756 5755 5754 5753
5741 5742 5742 5744 5745 5745 5744 5744 5745 5746 5747 5748 5748 5747 5747 5747 5747 5748 5749 5749 5749 5749 5750 5750 5751 5750 5750 5749 5749 5749 5750 5750 5750 5749 5749 5749 5749 5749 5749 5749 5750 5749 5750 5750 5751 5751 5750 5750 5749 5748 5747 5746
5734 5736 5737 5738 5739 5739 5739 5739 5740 5741 5742 5743 5742 5742 5742 5742 5742 5743 5744 5744 5744 5745 5744 5745 5745 5745 5745 5744 5743 5742 5742 5743 5743 5742 5742 5742 5743 5743 5743 5743 5743 5743 5743 5743 5744 5744 5743 5743 5742 5741 5740 5739
5727 5729 5731 5731 5731 5731 5732 5734 5735 5737 5737 5736 5735 5736 5737 5737 5738 5739 5739 5740 5740 5740 5739 5739 5739 5739 5740 5741 5739 5737 5736 5735 5735 5736 5736 5736 5736 5736 5736 5736 5737 5737 5736 5736 5736 5736 5736 5735 5735 5734 5733 5732
5721 5722 5724 5724 5724 5725 5726 5727 5729 5730 5729 5728 5728 5730 5731 5732 5733 5733 5734 5734 5734 5734 5734 5734 5733 5734 5735 5736 5735 5734 5732 5730 5729 5729 5730 5730 5730 5730 5730 5730 5730 5730 5730 5729 5729 5729 5728 5728 5728 5727 5727 5725
5714 5715 5716 5717 5718 5718 5720 5721 5722 5722 5723 5722 5722 5723 5724 5725 5726 5726 5727 5728 5728 5728 5728 5728 5728 5729 5730 5730 5729 5728 5727 5726 5725 5724 5724 5724 5724 5724 5724 5724 5724 5723 5723 5722 5722 5721 5721 5721 5721 5721 5720 5719
5708 5708 5709 5710 5711 5711 5712 5714 5714 5715 5716 5715 5714 5716 5718 5719 5720 5720 5721 5721 5721 5721 5721 5721 5722 5723 5724 5723 5722 5721 5721 5720 5719 5718 5718 5717 5717 5717 5717 5717 5717 5716 5716 5716 5716 5715 5715 5715 5714 5714 5714 5712
5701 5702 5703 5704 5705 5705 5706 5706 5707 5707 5708 5708 5709 5710 5712 5713 5713 5713 5713 5713 5713 5714 5715 5715 5716 5716 5717 5716 5714 5714 5714 5713 5712 5712 5712 5711 5711 5710 5710 5710 5709 5709 5709 5709 5709 5709 5708 5708 5708 5707 5707 5705
5694 5695 5696 5697 5698 5699 5700 5700 5700 5700 5701 5702 5703 5705 5706 5706 5707 5707 5707 5707 5706 5706 5707 5708 5708 5708 5709 5708 5708 5707 5706 5706 5706 5705 5705 5705 5705 5704 5704 5704 5703 5702 5703 5703 5703 5702 5702 5701 5701 5700 5699 5698
5687 5687 5688 5690 5692 5692 5693 5694 5694 5694 5694 5695 5697 5698 5698 5699 5700 5700 5700 5700 5699 5699 5700 5701 5701 5701 5701 5701 5701 5700 5699 5699 5699 5698 5698 5698 5698 5698 5698 5698 5698 5697 5697 5697 5696 5696 5695 5694 5693 5692 5691 5690
5680 5681 5681 5682 5684 5685 5686 5687 5688 5688 5688 5689 5689 5690 5691 5692 5692 5693 5693 5693 5693 5693 5693 5694 5695 5695 5695 5694 5694 5694 5693 5693 5692 5691 5691 5690 5690 5691 5691 5692 5692 5691 5692 5691 5690 5689 5688 5687 5686 5684 5683 5682
Wind_Speed
44 44 43 43 43 43 43 43 42 42 42 43 42 41 40 39 38 38 38 39 40 41 42 41 40 41 42 42 42 42 42 42 42 43 43 43 42 41 40 40 40 40 40 40 40 40 40 40 40 40 39 39
44 44 45 45 44 44 44 44 44 44 44 44 43 42 41 39 38 38 39 41 42 43 43 42 42 42 43 43 43 43 43 43 43 44 44 44 43 42 41 41 41 41 41 41 41 42 42 42 42 41 40 40
44 45 45 45 45 45 44 44 44 45 45 45 44 43 42 40 39 39 40 42 43 44 44 44 43 43 44 44 44 44 44 44 45 45 45 45 44 44 43 42 42 41 41 42 42 42 43 42 42 42 41 41
45 46 46 46 46 45 44 44 44 45 46 45 45 44 42 40 39 40 41 42 43 45 45 45 44 44 44 45 45 45 45 45 46 46 46 46 45 45 44 43 42 42 42 42 43 43 42 42 42 42 42 43
46 47 47 46 46 45 44 44 44 44 45 46 46 44 43 41 40 40 41 42 43 45 45 45 45 45 45 45 45 45 45 45 45 46 47 47 46 45 44 44 43 43 43 43 43 43 43 43 43 44 44 45
46 47 47 46 45 45 44 44 44 44 45 46 46 45 43 42 41 41 42 42 44 44 44 45 44 44 44 44 45 45 45 45 46 47 47 47 47 45 44 44 45 44 44 44 44 44 45 45 45 45 46 45
47 46 46 45 45 45 45 44 44 44 45 47 47 46 45 44 43 43 43 43 44 44 45 45 44 44 44 45 45 45 45 46 47 48 48 48 48 46 45 45 45 46 46 46 46 47 47 47 46 46 45 45
48 47 46 46 46 46 46 45 45 45 46 47 48 48 47 47 46 45 45 45 45 45 45 45 45 44 45 46 46 46 46 47 48 49 49 49 49 48 47 46 46 47 47 47 48 47 47 47 46 45 44 44
48 48 48 47 47 47 47 46 47 48 48 49 49 49 49 49 48 48 47 47 47 47 46 46 46 46 47 47 47 47 47 48 49 49 50 50 49 49 47 46 46 47 47 48 47 46 46 45 44 44 43 43
50 50 49 49 48 49 49 48 49 49 50 50 50 50 51 51 50 49 49 49 49 48 47 47 47 48 48 48 49 49 49 50 50 50 50 50 50 49 47 46 46 47 47 47 46 46 45 44 44 44 44 43
50 51 50 49 49 50 50 51 51 50 50 50 50 50 51 51 50 50 50 50 50 49 48 48 49 49 50 50 51 51 51 51 51 51 51 51 50 49 47 46 47 47 48 48 47 46 45 45 44 44 44 44
50 51 51 50 49 49 49 50 51 51 51 50 50 49 50 50 51 50 50 50 50 49 49 50 50 50 51 52 52 53 53 53 52 52 52 52 50 49 48 48 48 49 49 48 47 46 45 45 45 45 46 46
50 51 51 51 51 50 49 48 49 50 51 52 51 51 50 50 50 50 49 49 49 50 50 50 50 50 51 52 53 53 54 53 53 53 53 52 50 49 49 50 50 49 49 48 48 47 46 46 47 47 47 48
51 53 52 51 51 50 49 48 50 51 50 53 54 53 52 51 50 49 49 49 49 49 50 50 50 51 52 52 53 53 53 53 53 53 53 52 51 51 51 51 51 50 49 48 48 47 47 47 48 48 48 48
52 53 52 51 52 51 50 50 51 52 52 54 56 56 54 52 51 49 49 48 48 49 50 51 51 52 52 53 53 53 53 54 54 53 53 52 52 52 52 51 51 51 50 49 48 48 48 48 48 47 47 47
52 53 52 52 52 51 51 52 52 55 55 54 56 57 56 54 52 50 49 48 48 49 50 51 52 52 53 53 53 53 54 54 54 54 54 54 54 53 53 52 52 51 51 50 49 48 48 47 46 46 46 47
50 51 53 52 51 51 52 53 54 57 55 52 54 55 55 54 52 51 49 48 48 49 50 51 51 52 53 53 53 54 55 55 55 55 55 55 55 55 54 53 53 53 52 51 49 48 48 46 45 45 46 47
48 49 50 49 49 50 52 53 52 54 52 50 53 53 52 51 49 49 49 48 48 48 50 50 51 52 52 53 53 54 55 55 56 56 55 55 55 55 55 54 54 54 53 51 49 47 46 45 45 46 47 48
50 50 51 49 48 47 50 52 51 51 52 51 51 52 51 50 49 48 49 48 48 49 51 51 51 53 53 53 53 54 55 55 55 55 55 55 55 56 55 55 54 54 53 50 47 46 46 47 48 49 50 51
54 53 53 51 47 47 47 47 49 51 54 54 53 53 53 54 53 51 48 47 48 50 51 52 53 53 53 53 53 54 54 54 54 55 56 56 57 57 56 55 54 53 52 49 47 47 49 50 51 52 52 53
57 56 56 54 49 49 48 47 49 50 54 57 56 54 54 54 53 52 49 47 49 52 53 54 54 53 53 54 54 55 55 55 55 56 56 57 57 56 55 54 53 52 52 51 50 50 52 53 53 54 54 54
54 56 57 57 55 54 52 50 50 51 53 53 50 50 53 52 51 50 49 48 51 53 55 55 54 54 56 57 56 55 55 54 56 58 57 56 55 53 52 53 53 54 54 53 52 52 53 55 55 55 55 55
52 55 56 58 60 61 59 55 52 51 51 48 46 49 52 53 50 47 47 47 48 51 54 55 55 56 57 57 57 56 57 58 59 61 60 58 56 55 54 54 55 56 55 53 53 55 56 56 56 56 55 55
53 55 56 59 62 64 66 66 63 60 53 48 50 49 51 53 49 45 48 48 47 50 54 55 58 61 58 56 57 56 58 63 65 64 62 62 62 60 58 57 57 56 55 54 56 57 57 57 56 56 55 54
55 57 58 60 63 63 63 65 67 68 62 56 54 49 46 50 49 46 47 50 52 55 55 50 51 56 56 55 55 53 51 55 60 61 61 62 61 59 57 56 56 56 56 57 57 56 55 55 55 54 54 55
59 60 59 60 62 62 61 60 62 65 63 57 57 56 51 50 51 50 47 50 54 57 54 48 43 45 49 53 55 54 52 52 52 52 55 57 57 57 57 58 59 59 59 57 55 54 54 54 53 54 54 55
63 60 58 57 59 63 63 63 64 65 63 59 59 60 58 54 52 51 51 54 57 56 53 49 42 41 47 51 55 57 57 56 53 48 47 49 51 53 54 55 57 57 57 55 53 52 52 53 54 55 55 56
66 61 56 53 53 59 62 64 67 66 64 65 65 63 60 59 55 54 54 55 55 55 54 51 45 45 50 52 52 55 56 55 52 47 45 45 46 49 51 52 54 55 56 54 52 51 52 54 56 58 59 59
71 69 63 55 50 53 58 59 62 62 60 61 65 64 62 61 59 58 57 53 53 53 53 53 50 48 52 52 51 52 54 54 53 53 54 52 49 49 52 53 55 59 57 52 49 52 57 58 59 61 61 61
71 73 72 65 56 53 55 56 57 57 57 56 58 61 64 64 62 62 61 55 51 52 51 53 55 53 54 54 53 55 56 55 56 57 57 56 52 50 51 50 52 56 55 52 53 58 63 62 62 62 63 63
68 71 73 72 66 61 58 57 57 56 54 54 54 55 58 62 62 62 64 60 53 51 50 49 51 51 52 52 52 55 55 52 54 56 54 54 55 56 57 56 57 58 58 60 63 64 64 63 63 65 65 66
Wind_Direction
242 243 244 244 245 246 247 247 248 249 250 250 251 252 253 254 253 252 251 250 250 250 251 251 252 254 256 258 259 260 262 262 263 263 263 263 263 264 264 265 265 266 267 267 267 268 268 269 269 269 270 271
243 245 246 246 246 247 248 250 251 251 252 252 253 254 255 256 255 254 252 251 251 251 251 252 253 254 257 259 260 262 263 264 264 264 264 264 265 265 265 265 265 266 266 267 267 268 268 268 269 269 270 270
242 244 245 246 246 247 248 250 251 252 253 254 255 256 257 258 258 257 255 254 254 253 253 253 254 255 257 259 260 262 263 264 264 265 265 266 266 266 266 265 265 265 266 266 266 267 267 268 268 269 270 271
242 243 244 246 247 247 248 249 251 252 253 254 255 256 257 258 259 259 258 257 257 256 256 256 256 257 258 259 260 261 262 263 264 264 264 265 265 265 265 265 265 265 265 265 265 266 266 267 269 270 271 272
242 244 244 246 247 248 249 250 250 252 253 253 254 255 257 258 258 259 259 259 259 259 259 259 259 260 260 260 261 261 262 262 262 263 263 263 264 264 264 264 264 264 264 265 265 266 267 269 270 271 272 273
244 245 246 247 248 249 250 251 252 253 255 255 255 256 257 257 258 259 259 260 260 261 261 262 262 262 262 262 261 261 261 261 261 262 262 263 263 263 263 263 264 264 265 266 267 268 269 270 271 273 273 274
244 246 248 249 249 250 250 251 253 255 256 257 257 258 258 259 259 259 260 260 261 261 262 262 262 262 262 262 261 261 260 260 260 261 262 263 263 263 262 263 264 265 266 267 268 269 270 271 272 272 273 273
246 247 248 249 249 250 251 251 253 255 257 258 258 259 259 259 260 260 260 261 261 261 261 261 262 262 261 261 261 261 260 260 260 261 262 263 263 263 263 264 265 266 267 268 269 270 271 271 270 270 271 271
250 250 250 250 251 252 253 254 254 255 257 258 259 260 260 260 259 260 260 260 260 260 260 260 260 260 260 260 260 260 260 260 261 262 263 264 265 266 266 267 267 267 267 268 269 270 270 270 269 269 269 270
253 254 254 253 254 255 256 256 256 256 256 257 258 259 259 259 259 259 259 259 259 259 259 259 259 259 259 260 260 259 260 260 261 262 263 264 266 268 269 269 268 267 268 268 268 269 269 268 268 268 268 269
253 252 252 253 253 253 255 256 257 257 257 257 257 257 258 258 258 258 258 258 259 259 258 258 258 259 260 260 260 260 260 261 262 262 263 264 266 268 269 268 267 267 268 268 268 269 268 268 268 268 268 269
249 250 249 251 252 252 252 254 256 257 257 257 256 256 257 257 258 257 257 258 258 258 258 258 258 259 259 259 260 260 261 261 262 262 263 264 266 267 267 266 266 267 268 269 269 269 269 269 268 268 268 269
245 248 249 250 252 253 253 253 255 256 256 257 258 257 257 257 257 257 256 256 257 257 257 258 258 258 258 259 259 260 261 261 262 262 263 264 266 266 266 266 266 267 267 268 269 269 269 269 269 269 270 270
244 245 247 250 251 252 253 255 256 256 257 258 258 258 257 256 256 257 256 255 255 256 256 257 257 257 258 258 259 260 261 261 262 263 264 265 266 265 266 266 267 267 268 268 268 269 269 269 270 270 271 271
244 245 246 248 250 253 255 256 257 259 259 258 258 257 256 255 255 255 255 254 254 254 255 256 256 257 258 258 259 260 261 261 263 264 265 265 265 265 266 266 267 267 268 268 268 268 268 269 270 270 271 271
244 246 247 248 251 255 257 257 258 259 258 257 255 254 253 254 255 254 253 253 253 253 254 255 256 256 257 258 259 260 261 263 264 264 265 265 265 266 266 266 267 267 267 268 268 268 268 269 269 270 270 271
243 245 247 248 250 253 255 257 256 255 254 254 253 252 253 253 253 253 252 252 253 253 254 255 256 257 257 259 260 261 262 263 264 265 265 266 266 267 267 267 267 267 267 267 268 268 268 269 269 270 270 271
241 243 244 245 247 248 250 252 252 252 251 248 250 254 252 250 250 250 251 252 253 254 256 256 256 258 259 260 260 262 263 264 265 265 266 267 267 268 267 267 267 267 267 268 268 268 268 269 269 270 271 272
243 243 244 245 246 249 249 248 247 249 247 243 247 253 251 247 246 248 250 252 252 254 256 258 259 259 260 261 261 263 264 265 266 266 267 267 267 267 267 267 267 267 268 268 268 268 268 269 270 271 272 273
245 245 246 246 245 249 249 248 249 247 244 244 248 250 250 249 248 248 249 252 254 255 256 258 259 260 261 262 264 265 265 265 265 265 266 266 266 266 266 266 266 266 267 267 266 267 269 270 272 273 274 274
244 245 247 245 245 247 242 241 247 247 244 245 248 249 249 250 249 249 248 249 253 255 256 257 258 260 262 264 265 266 265 265 264 265 266 265 265 265 264 264 265 266 266 265 267 269 271 273 274 274 274 275
243 243 245 244 243 242 238 235 238 242 242 243 248 251 249 248 249 251 251 251 252 253 254 255 257 260 263 265 267 266 263 263 264 266 266 266 265 264 263 264 265 267 269 269 270 272 273 274 275 274 274 275
240 239 241 243 242 240 240 238 236 239 241 244 253 254 248 248 249 249 252 253 254 255 254 256 258 259 260 262 265 266 265 264 266 266 267 266 265 264 263 265 267 269 271 272 274 274 275 275 275 275 275 276
242 240 235 236 238 239 242 243 242 242 242 246 254 253 247 248 249 248 251 253 255 257 255 255 257 255 254 254 258 263 264 264 263 263 264 265 264 263 263 265 268 269 270 272 275 275 275 275 275 276 276 276
246 246 239 235 235 236 238 240 242 241 241 243 246 247 246 246 245 247 254 255 253 252 251 254 256 255 253 249 251 257 259 260 261 260 260 260 259 260 262 265 267 267 269 272 274 275 275 275 275 275 276 278
247 247 245 243 241 240 239 238 239 240 241 244 246 244 244 245 242 242 252 259 255 248 248 253 253 255 258 252 249 255 258 261 264 263 262 261 261 262 264 265 266 267 269 271 274 276 276 276 275 275 277 281
245 245 246 247 247 247 246 244 243 242 242 243 246 245 243 244 242 240 250 258 254 249 250 252 252 258 262 257 254 258 261 263 263 262 264 264 264 265 266 266 266 267 269 272 275 275 276 275 275 276 279 281
244 244 245 247 249 249 248 248 247 246 244 242 244 244 243 243 242 239 244 250 249 249 250 248 252 259 258 256 259 261 262 261 259 259 262 264 266 270 270 270 271 270 272 274 274 274 276 277 277 278 278 279
247 247 248 248 249 249 246 244 245 245 244 244 244 244 243 244 245 243 242 247 251 251 249 244 246 251 250 252 259 262 263 260 259 264 267 267 270 272 270 269 270 270 270 271 272 275 278 278 278 278 277 278
252 252 252 251 250 251 248 242 240 241 241 241 242 243 243 244 247 245 242 246 251 252 253 249 246 248 252 256 261 265 268 266 265 267 269 268 268 266 263 264 266 266 265 265 270 276 278 277 276 277 277 279
254 255 256 256 255 255 255 250 244 241 240 239 239 240 242 243 246 246 243 243 248 250 253 253 251 252 257 262 265 267 269 269 268 268 269 268 266 264 262 263 266 267 266 267 272 275 275 274 274 276 277 279